User: anonymous   Login
Location: Campillo
(40.8621°N, 4.2488°W)
Time: 22:34:36
(UTC+00:00)
Language:

Spot 2 Rocket - Orbit

View from above orbital plane
View from above orbital plane
View from above satellite
View from above satellite

Ground track
Ground track

The orbit data is extracted from the following two-line orbital elements,

1 20443U 90005H   21204.19964188  .00000033  00000-0  25383-4 0  9993
2 20443  98.5269 270.1998 0009621 223.4920 136.5509 14.38135156649713
Epoch (UTC): 23 July 2021 04:47:29
Eccentricity: 0.0009621
inclination: 98.5269°
perigee height: 758 km
apogee height: 771 km
right ascension of ascending node: 270.1998°
argument of perigee: 223.4920°
revolutions per day: 14.38135156
mean anomaly at epoch: 136.5509°
orbit number at epoch: 64971

The dashed part of the orbit path shows where the satellite is in the earth's shadow,  

DLR